Barrow, AK

6:10 AM AKDT on September 19, 2017 (GMT -0800)
Wiley Post-Will Rogers Memorial

Weather History for PABR - April, 2014

Change the Weather History Date:

Sunday, April 27, 2014

  Actual Average Record
Temperature  
Mean Temperature 14 °F 10 °F  
Max Temperature 25 °F 16 °F 37 °F (1967)
Min Temperature 2 °F 3 °F -22 °F (1949)
Degree Days  
Heating Degree Days 51 55  
Month to date heating degree days 1688 1733  
Since 1 July heating degree days 15512 16997  
Cooling Degree Days 0 0  
Month to date cooling degree days 0 0  
Year to date cooling degree days 0 0  
Moisture  
Dew Point 17 °F    
Average Humidity 0    
Maximum Humidity 0    
Minimum Humidity 0    
Precipitation  
Precipitation T in 0.00 in 0.07 in (1973)
Month to date precipitation 0.44 0.14  
Year to date precipitation 0.86 0.50  
Snow  
Snow T in 0.10 in 1.20 in (1973)
Month to date snowfall 3.6 2.9  
Since 1 July snowfall 48.0 34.0  
Snow Depth 9.00 in    
Sea Level Pressure  
Sea Level Pressure 29.85 in    
Wind  
Wind Speed 13 mph (East)    
Max Wind Speed 21 mph    
Max Gust Speed 25 mph    
Visibility 5 miles    
Events Fog , Snow    
T = Trace of Precipitation, MM = Missing Value Source: NWS Daily Summary

Daily Weather History Graph

Daily Weather History Graph

Search for Another Location

Airport or City:

Trip Planner

Search our weather history database for the weather conditions in past years. The results will help you decide how hot, cold, wet, or windy it might be!

Date:

Astronomy

Apr. 27, 2014 Rise Set
Actual Time 5:00 AM AKDT 11:54 PM AKDT
Civil Twilight 2:57 AM AKDT 1:52 AM AKDT
Nautical Twilight Sun does not set Sun does not set
Astronomical Twilight Sun does not set Sun does not set
Moon 5:34 AM AKDT (4/27) 9:38 PM AKDT (4/27)
Length of Visible Light 22h 54m
Length of Day
18h 53m
Waning Crescent, 2% of the Moon is Illuminated
Apr 27
Waning Crescent
Apr 28
New
May 6
First Quarter
May 14
Full
May 21
Last Quarter

Hourly Weather History & Observations

Time (AKDT) Temp. Windchill Dew Point Humidity Pressure Visibility Wind Dir Wind Speed Gust Speed Precip Events Conditions
12:53 AM 19.0 °F 8.2 °F 18.0 °F 96% 29.76 in 0.2 mi ENE 9.2 mph - N/A Fog Light Freezing Fog
1:22 AM 19.9 °F 8.6 °F 18.0 °F 92% 29.76 in 0.2 mi ENE 10.4 mph - N/A Fog Light Freezing Fog
1:53 AM 19.9 °F 7.9 °F 18.0 °F 92% 29.77 in 0.5 mi NE 11.5 mph - N/A Fog Light Freezing Fog
2:53 AM 19.9 °F 9.3 °F 19.0 °F 96% 29.77 in 0.5 mi NE 9.2 mph - N/A Fog Light Freezing Fog
3:53 AM 19.9 °F 7.3 °F 19.0 °F 96% 29.78 in 0.5 mi ENE 12.7 mph - N/A Fog Light Freezing Fog
4:53 AM 19.9 °F 7.3 °F 19.0 °F 96% 29.79 in 0.5 mi ENE 12.7 mph - N/A Fog Light Freezing Fog
5:53 AM 18.0 °F 6.1 °F 16.0 °F 92% 29.79 in 0.2 mi East 10.4 mph - N/A Fog Light Freezing Fog
6:53 AM 19.9 °F 9.3 °F 19.0 °F 96% 29.80 in 0.5 mi East 9.2 mph - N/A Fog Light Freezing Fog
7:53 AM 21.0 °F 11.4 °F 19.9 °F 96% 29.81 in 0.5 mi ESE 8.1 mph - N/A Fog Light Freezing Fog
8:07 AM 21.0 °F 12.4 °F 19.9 °F 96% 29.81 in 0.5 mi ESE 6.9 mph - 0.00 in Fog Light Freezing Drizzle
8:39 AM 21.0 °F 11.4 °F 19.9 °F 96% 29.81 in 0.8 mi East 8.1 mph - 0.00 in   Mist
8:53 AM 21.9 °F 11.7 °F 21.0 °F 96% 29.82 in 1.5 mi East 9.2 mph - 0.00 in   Overcast
9:04 AM 21.9 °F 11.7 °F 19.9 °F 92% 29.81 in 3.0 mi East 9.2 mph - N/A   Overcast
9:53 AM 23.0 °F 13.9 °F 21.0 °F 92% 29.82 in 3.0 mi ESE 8.1 mph - N/A   Overcast
10:19 AM 24.1 °F 13.1 °F 21.9 °F 91% 29.82 in 10.0 mi ESE 11.5 mph - N/A   Overcast
10:53 AM 24.1 °F 13.1 °F 21.9 °F 91% 29.83 in 10.0 mi East 11.5 mph - N/A   Overcast
11:02 AM 24.1 °F 13.1 °F 21.9 °F 91% 29.83 in 10.0 mi ESE 11.5 mph - N/A   Overcast
11:53 AM 24.1 °F 16.0 °F 23.0 °F 96% 29.84 in 10.0 mi East 6.9 mph - N/A   Overcast
12:24 PM 25.0 °F 13.1 °F 21.9 °F 88% 29.84 in 0.8 mi ENE 13.8 mph - N/A   Overcast
12:42 PM 25.0 °F 14.2 °F 23.0 °F 92% 29.84 in 3.0 mi East 11.5 mph - N/A   Overcast
12:53 PM 25.0 °F 14.2 °F 23.0 °F 92% 29.85 in 10.0 mi East 11.5 mph - N/A   Overcast
1:53 PM 24.1 °F 11.0 °F 21.9 °F 91% 29.86 in 9.0 mi East 16.1 mph - N/A   Overcast
2:43 PM 23.0 °F 10.1 °F 21.0 °F 92% 29.86 in 10.0 mi East 15.0 mph - N/A   Overcast
2:53 PM 23.0 °F 10.1 °F 19.9 °F 88% 29.87 in 8.0 mi East 15.0 mph - 0.00 in Snow Light Snow
3:49 PM 21.2 °F 6.4 °F 19.4 °F 93% 29.87 in 1.5 mi East 18.4 mph - N/A   Overcast
3:53 PM 21.0 °F 7.1 °F 18.0 °F 88% 29.88 in 1.0 mi East 16.1 mph - 0.00 in   Overcast
4:14 PM 19.9 °F 5.7 °F 18.0 °F 92% 29.88 in 0.5 mi East 16.1 mph - N/A Fog Light Freezing Fog
4:16 PM 19.9 °F 5.2 °F 18.0 °F 92% 29.88 in 1.0 mi East 17.3 mph - N/A   Overcast
4:29 PM 19.9 °F 3.9 °F 17.1 °F 89% 29.88 in 7.0 mi East 20.7 mph - N/A   Overcast
4:37 PM 19.0 °F 4.5 °F 15.1 °F 85% 29.88 in 7.0 mi East 16.1 mph - N/A   Overcast
4:53 PM 18.0 °F 2.6 °F 14.0 °F 84% 29.89 in 7.0 mi East 17.3 mph - N/A   Mostly Cloudy
5:08 PM 18.0 °F 2.6 °F 14.0 °F 84% 29.89 in 10.0 mi East 17.3 mph - N/A   Mostly Cloudy
5:53 PM 17.1 °F 1.0 °F 12.9 °F 84% 29.90 in 10.0 mi East 18.4 mph - N/A   Scattered Clouds
6:53 PM 16.0 °F -0.4 °F 12.0 °F 84% 29.91 in 10.0 mi East 18.4 mph - N/A   Mostly Cloudy
7:53 PM 15.1 °F -0.1 °F 10.9 °F 84% 29.92 in 10.0 mi East 15.0 mph - N/A   Scattered Clouds
8:53 PM 12.9 °F -1.6 °F 10.0 °F 88% 29.93 in 10.0 mi East 12.7 mph - N/A   Scattered Clouds
9:53 PM 10.4 °F -5.4 °F 6.8 °F 85% 29.94 in 10.0 mi East 13.8 mph - N/A   Scattered Clouds
10:53 PM 7.0 °F -10.4 °F 3.0 °F 84% 29.95 in 10.0 mi East 15.0 mph - N/A   Partly Cloudy
11:53 PM 5.0 °F -13.6 °F 1.4 °F 85% 29.96 in 10.0 mi East 16.1 mph - N/A   Partly Cloudy